[[{"header":{"parameterUnit":"m.s-1","parameterCategory":1,"la1":30.2991,"la2":30.254,"lo1":-89.0895,"lo2":-89.0444,"dy":0.0017,"dx":0.0017,"nx":28,"ny":28,"refTime":"2024-06-22T03:00:00:Z","depth":0,"parameterNumber":2,"parameterNumberName":"U-component_of_WINDS"},"data":[0,0,0,0,0,0,0,0,0,0,0,0,0,0,0,0,0,0,0,0,0,0,0,0,0,0,0,0,0,0,0,0,0,0,0,0,0,0,0,0,0,0,0,0,0,0,0,0,0,0,0,0,0,0,0,0,0,0,1.4236,1.4236,0,1.4278,1.4278,1.4279,1.4284,1.4284,1.4283,1.4283,1.4324,1.4325,1.4326,0,0,0,0,0,0,0,0,0,0,0,0,0,1.4156,1.4157,1.4236,1.4236,1.4237,1.4278,1.4278,1.4279,1.4284,1.4284,1.4283,1.4283,1.4323,1.4325,1.4326,0,0,0,0,0,0,0,0,0,0,0,0,0,1.4193,1.4158,1.4235,1.4244,1.4246,1.4277,1.4278,1.4279,1.4284,1.4284,1.4283,1.4283,1.4322,1.4325,1.4327,1.4352,0,0,1.4333,1.4334,0,0,0,0,0,0,0,0,1.4191,1.4196,1.4243,1.4244,1.4245,1.4275,1.4265,1.4303,1.4285,1.427,1.4283,1.4282,1.4308,1.4311,1.432,1.4354,1.4355,1.4333,1.4335,1.4336,1.4336,0,0,0,0,0,0,0,1.4189,1.4194,1.4252,1.4243,1.4245,1.4245,1.425,1.4272,1.4291,1.4271,1.4271,1.4276,1.4308,1.4318,1.4321,1.4356,1.4333,1.4335,1.4337,1.4338,1.441,1.441,0,0,0,0,0,0,1.4185,1.4192,1.4251,1.4253,1.4216,1.4247,1.4252,1.4266,1.4291,1.4294,1.4277,1.4277,1.4315,1.4319,1.4323,1.4352,1.4336,1.4338,1.4339,1.4409,1.441,1.441,0,0,0,0,0,0,1.4183,1.419,1.4249,1.4223,1.4231,1.4249,1.4265,1.4267,1.4277,1.4296,1.4299,1.4284,1.4314,1.432,1.4344,1.4354,1.4339,1.4341,1.4408,1.4409,1.441,1.4412,0,0,0,0,0,0,1.4181,1.4189,1.42,1.4223,1.4232,1.4271,1.4265,1.4268,1.4281,1.4281,1.4303,1.4306,1.4314,1.4341,1.4346,1.4356,1.4342,1.4408,1.4409,1.441,1.4412,1.4413,1.4415,0,0,0,0,0,1.4178,1.4199,1.4201,1.4208,1.4246,1.4272,1.4277,1.4287,1.4282,1.4292,1.4304,1.4305,1.4352,1.4343,1.4349,1.436,1.4407,1.4408,1.441,1.4411,1.4413,1.4415,0,0,0,0,0,0,1.4176,1.4202,1.4205,1.4234,1.4251,1.4273,1.4286,1.4289,1.4307,1.4306,1.4317,1.4321,1.4345,1.4355,1.4345,1.4385,1.4379,1.4381,1.4377,1.438,1.4381,1.4378,1.4344,0,0,0,0,0,1.4179,1.4199,1.4221,1.4244,1.4253,1.4268,1.4279,1.4286,1.4303,1.431,1.4323,1.4339,1.4357,1.4369,1.4387,1.4413,1.4417,1.4423,1.4425,1.4426,1.4428,1.4441,1.4443,1.4415,1.4415,1.4415,0,0,1.4186,1.4203,1.4214,1.4244,1.4258,1.4277,1.4274,1.4294,1.4308,1.4313,1.4337,1.4347,1.4365,1.439,1.4402,1.4399,1.4437,1.4428,1.4429,1.443,1.4442,1.4445,1.4447,1.4416,1.4416,1.4416,0,0,1.4207,1.4223,1.4243,1.4257,1.4278,1.4287,1.4292,1.4314,1.4321,1.4345,1.4348,1.4364,1.4396,1.4408,1.4418,1.4442,1.4444,1.4448,1.4456,1.4468,1.447,1.4472,1.448,1.4482,1.445,1.445,1.445,0,1.4212,1.4242,1.4253,1.4273,1.4286,1.4291,1.4311,1.4323,1.4348,1.4356,1.4353,1.4391,1.4404,1.4431,1.4437,1.4446,1.445,1.4445,1.4469,1.4471,1.4473,1.448,1.4483,1.445,1.445,1.445,1.445,0,1.4247,1.4267,1.4281,1.4306,1.4319,1.4339,1.4352,1.4364,1.4368,1.4378,1.4401,1.4417,1.4437,1.4444,1.4449,1.4471,1.4469,1.4467,1.4461,1.4476,1.4483,1.4486,1.445,1.445,1.445,1.445,0,0,1.4269,1.4298,1.4303,1.4314,1.4336,1.4351,1.437,1.4391,1.44,1.4417,1.4432,1.4458,1.4456,1.4468,1.4474,1.4485,1.4501,1.4482,1.4482,1.4484,1.4525,1.4525,1.4528,1.4502,1.4502,1.4503,1.4523,0,1.4292,1.4328,1.4337,1.4367,1.4385,1.4389,1.4406,1.442,1.4429,1.4444,1.4454,1.4471,1.4469,1.4476,1.4486,1.4497,1.4509,1.4495,1.4515,1.4515,1.451,1.4532,1.4533,1.4551,1.4526,1.4526,1.4526,0,1.4324,1.4342,1.4373,1.4392,1.4399,1.4414,1.4433,1.4448,1.4464,1.4469,1.4481,1.4486,1.4504,1.4497,1.4522,1.4512,1.4521,1.4527,1.4528,1.4529,1.4522,1.4533,1.4557,1.4559,1.4531,1.4531,1.453,0,1.4336,1.4367,1.439,1.4398,1.4421,1.4431,1.444,1.4456,1.4467,1.4482,1.4489,1.4507,1.4516,1.4528,1.4537,1.4531,1.456,1.4554,1.4564,1.4564,1.457,1.4569,1.4594,1.4576,1.4576,1.4576,1.4576,0,1.436,1.4379,1.4395,1.4409,1.4429,1.4439,1.4458,1.4468,1.4481,1.4495,1.45,1.4513,1.4524,1.4538,1.4545,1.4563,1.4567,1.4571,1.4573,1.4571,1.457,1.4576,1.4575,1.4577,1.4577,1.4577,1.4576,0,1.4377,1.4388,1.4413,1.4432,1.4437,1.4451,1.4466,1.4479,1.4488,1.4506,1.451,1.4523,1.454,1.455,1.4571,1.4575,1.4595,1.4596,1.459,1.4591,1.4599,1.4598,1.4628,1.4632,1.4613,1.4613,1.4613,0,1.4392,1.4406,1.4426,1.4437,1.4446,1.4463,1.4474,1.4484,1.4495,1.4513,1.4523,1.454,1.4554,1.458,1.4591,1.4607,1.4608,1.4617,1.461,1.4607,1.4606,1.4605,1.4606,1.4618,1.4618,1.4619,1.4619,0,1.4416,1.442,1.4437,1.4454,1.4467,1.4482,1.4496,1.4504,1.4515,1.4527,1.4544,1.4555,1.4577,1.4593,1.4609,1.4618,1.4619,1.4621,1.4624,1.4621,1.4617,1.4618,1.4593,1.462,1.462,1.462,1.462,1.462,1.4431,1.4443,1.4459,1.4477,1.4488,1.4501,1.4513,1.4523,1.4538,1.4556,1.4561,1.4578,1.4592,1.4614,1.4623,1.4636,1.4634,1.4639,1.464,1.464,1.464,1.4615,1.4639,1.4639,1.4639,1.4639,1.4639,0,1.4454,1.4465,1.448,1.45,1.4513,1.4514,1.4529,1.454,1.4556,1.4569,1.4582,1.4601,1.4617,1.4628,1.4644,1.4652,1.4653,1.4656,1.4655,1.4656,1.4641,1.4637,1.4654,1.4654,1.4654,1.4654,1.4654,1.4654,1.4468,1.4489,1.4495,1.452,1.453,1.4548,1.4556,1.4567,1.4577,1.4599,1.4612,1.4619,1.4631,1.4647,1.4661,1.4664,1.4669,1.4671,1.4674,1.4659,1.4658,1.4656,1.4652,1.4672,1.4672,1.4687,1.4687,1.4688]},{"header":{"parameterUnit":"m.s-1","parameterCategory":1,"la1":30.2991,"la2":30.254,"lo1":-89.0895,"lo2":-89.0444,"dy":0.0017,"dx":0.0017,"nx":28,"ny":28,"refTime":"2024-06-22T03:00:00:Z","depth":0,"parameterNumber":3,"parameterNumberName":"V-component_of_WINDS"},"data":[0,0,0,0,0,0,0,0,0,0,0,0,0,0,0,0,0,0,0,0,0,0,0,0,0,0,0,0,0,0,0,0,0,0,0,0,0,0,0,0,0,0,0,0,0,0,0,0,0,0,0,0,0,0,0,0,0,0,2.2396,2.2397,0,2.2439,2.244,2.244,2.2431,2.243,2.2429,2.2429,2.2469,2.2471,2.2473,0,0,0,0,0,0,0,0,0,0,0,0,0,2.2301,2.2302,2.2396,2.2397,2.2397,2.2439,2.244,2.2441,2.2431,2.243,2.2429,2.2428,2.2468,2.2471,2.2473,0,0,0,0,0,0,0,0,0,0,0,0,0,2.2343,2.2303,2.2396,2.2398,2.2398,2.2439,2.244,2.2441,2.2431,2.243,2.2429,2.2428,2.2468,2.247,2.2473,2.2514,0,0,2.2481,2.2483,0,0,0,0,0,0,0,0,2.234,2.2346,2.2397,2.2398,2.2398,2.2429,2.2421,2.2465,2.2432,2.2419,2.2429,2.2427,2.2456,2.246,2.2471,2.2516,2.2518,2.2482,2.2483,2.2485,2.2485,0,0,0,0,0,0,0,2.2337,2.2344,2.2413,2.2398,2.2399,2.2395,2.2399,2.2429,2.2443,2.242,2.2419,2.2425,2.2456,2.2468,2.2471,2.2518,2.2482,2.2484,2.2486,2.2487,2.2597,2.2599,0,0,0,0,0,0,2.2334,2.2342,2.2412,2.2414,2.2366,2.2397,2.2403,2.242,2.2443,2.2446,2.2426,2.2424,2.2464,2.2468,2.2473,2.2521,2.2484,2.2487,2.2489,2.2596,2.2598,2.2599,0,0,0,0,0,0,2.2332,2.2341,2.241,2.2378,2.2387,2.24,2.242,2.2422,2.2433,2.2448,2.245,2.2435,2.2463,2.2469,2.2504,2.2522,2.2488,2.2491,2.2595,2.2597,2.2598,2.2619,0,0,0,0,0,0,2.233,2.234,2.2357,2.2379,2.2388,2.2442,2.2421,2.2423,2.2438,2.2437,2.2457,2.2459,2.2463,2.25,2.2506,2.2526,2.2493,2.2593,2.2596,2.2598,2.2617,2.2621,2.2625,0,0,0,0,0,2.2326,2.2361,2.2358,2.2366,2.241,2.2443,2.2448,2.2452,2.244,2.2456,2.2465,2.2459,2.2519,2.2503,2.2511,2.2531,2.2592,2.2595,2.2598,2.2615,2.262,2.2625,0,0,0,0,0,0,2.234,2.2363,2.2361,2.2403,2.2421,2.2441,2.2462,2.2459,2.248,2.2477,2.248,2.2485,2.252,2.2529,2.2511,2.2571,2.2554,2.2558,2.2564,2.2569,2.2574,2.257,2.2495,0,0,0,0,0,2.2348,2.2374,2.2393,2.2428,2.2437,2.2448,2.2463,2.2464,2.2482,2.249,2.2501,2.2518,2.2541,2.2556,2.2578,2.2618,2.2621,2.2635,2.264,2.2643,2.2647,2.2667,2.2673,2.2609,2.2609,2.2609,0,0,2.2364,2.2381,2.2397,2.2431,2.2445,2.2471,2.2455,2.2482,2.2501,2.2493,2.2527,2.2536,2.2555,2.2592,2.2609,2.2601,2.2665,2.2647,2.265,2.2651,2.2671,2.2677,2.2682,2.2611,2.261,2.261,0,0,2.2407,2.2423,2.2454,2.2468,2.249,2.2497,2.2504,2.2525,2.2531,2.2565,2.2559,2.258,2.262,2.2633,2.2645,2.2692,2.2686,2.2699,2.2721,2.2741,2.2746,2.2751,2.2766,2.2772,2.2703,2.2703,2.2703,0,2.2425,2.2464,2.247,2.2498,2.2512,2.2508,2.2538,2.2552,2.2579,2.2588,2.2579,2.2628,2.264,2.268,2.2691,2.2701,2.2708,2.2696,2.2746,2.275,2.2754,2.2769,2.2775,2.2704,2.2704,2.2704,2.2704,0,2.2484,2.2511,2.2533,2.2561,2.2578,2.2607,2.2615,2.2631,2.2631,2.2638,2.2672,2.2687,2.2711,2.272,2.272,2.276,2.2754,2.2745,2.2727,2.2762,2.2776,2.2781,2.2706,2.2706,2.2705,2.2705,0,0,2.2537,2.2567,2.2575,2.2586,2.261,2.263,2.2658,2.2683,2.2696,2.2715,2.2737,2.277,2.2762,2.2775,2.2777,2.2794,2.2829,2.2783,2.2784,2.279,2.2871,2.2877,2.2884,2.2825,2.2827,2.2827,2.287,0,2.2581,2.2632,2.2637,2.2682,2.2706,2.2702,2.2726,2.2742,2.2749,2.2769,2.2777,2.28,2.2788,2.2796,2.2813,2.2821,2.2845,2.2818,2.2845,2.2846,2.2839,2.2891,2.2898,2.2937,2.2875,2.2876,2.2877,0,2.264,2.2661,2.2709,2.2728,2.2738,2.276,2.2782,2.2802,2.2819,2.2823,2.2838,2.2837,2.2864,2.2845,2.2882,2.2863,2.2874,2.288,2.2881,2.2883,2.2863,2.2894,2.295,2.2955,2.2886,2.2885,2.2884,0,2.2672,2.2713,2.2746,2.2756,2.278,2.2795,2.2805,2.2821,2.2835,2.2854,2.2863,2.2885,2.2896,2.2912,2.2916,2.2902,2.2951,2.2934,2.2954,2.2954,2.2964,2.2963,2.3021,2.2973,2.2973,2.2972,2.2972,0,2.2721,2.275,2.2761,2.2781,2.2813,2.2817,2.2848,2.2857,2.2871,2.2892,2.2889,2.2909,2.2913,2.2933,2.2936,2.2964,2.297,2.2972,2.2973,2.2972,2.2972,2.2979,2.2976,2.2974,2.2974,2.2973,2.2973,0,2.2762,2.2771,2.2807,2.2826,2.2831,2.2853,2.2869,2.2888,2.2894,2.2921,2.2927,2.2937,2.296,2.2965,2.2992,2.2994,2.3028,2.3026,2.3022,2.3022,2.3041,2.3039,2.3106,2.3114,2.3061,2.3061,2.3061,0,2.2792,2.2814,2.2836,2.285,2.2861,2.2884,2.2899,2.2903,2.2918,2.2939,2.2955,2.2978,2.2996,2.3032,2.3041,2.3061,2.3059,2.3081,2.3062,2.3061,2.3058,2.3057,2.3058,2.3085,2.3085,2.3086,2.3086,0,2.2844,2.2847,2.2869,2.2892,2.2909,2.2927,2.2944,2.2956,2.2962,2.2979,2.3003,2.3017,2.3045,2.3067,2.3087,2.3096,2.3092,2.3092,2.3097,2.3097,2.3093,2.3094,2.3031,2.309,2.309,2.309,2.3089,2.3089,2.288,2.2899,2.2917,2.294,2.2954,2.297,2.2988,2.2997,2.3018,2.3041,2.3042,2.3068,2.3083,2.311,2.312,2.3139,2.3132,2.314,2.3142,2.3144,2.3145,2.3091,2.3143,2.3143,2.3142,2.3142,2.3142,0,2.293,2.2942,2.2964,2.2988,2.3006,2.3002,2.302,2.3035,2.3058,2.3073,2.3092,2.3118,2.3139,2.315,2.317,2.3183,2.3182,2.3188,2.3187,2.3189,2.3151,2.3143,2.3189,2.3189,2.3189,2.3189,2.3189,2.3189,2.2959,2.299,2.2995,2.3033,2.3044,2.307,2.308,2.3094,2.3106,2.3136,2.3154,2.3161,2.3174,2.3195,2.3214,2.3216,2.3223,2.3231,2.3232,2.3196,2.3191,2.3187,2.318,2.3233,2.3233,2.3268,2.3269,2.3269]}]]